Location: Noverd
(38.0910°N, 121.6877°W)
Time: 14:49:59
(UTC+00:00)

Envisat - Pass Details

Date: 21 April 2026
Orbit: 761 x 762 km, 98.4° (Epoch: 15 May)

Event Time Altitude Azimuth Distance (km) Brightness Sun altitude
Rises 09:15:04 0° 38° (NE) 3,228 7.1 -37.4°
Reaches altitude 10° 09:19:23 10° 74° (ENE) 2,295 5.8 -37.1°
Enters shadow 09:20:06 11° 82° (E) 2,238 5.7 -37.0°
